Simultaneous Nadir Overpasses (SNOs) Predictions

Prediction of SNOs between LANDSAT-8 and NOAA-19 Satellite Orbit:

Table of predicted SNOs for the next 14.0 days since TLE Epoch: 1/1/2016
Index Date (LANDSAT-8) Time (LANDSAT-8) Lat,Lon (LANDSAT-8) SZA (LANDSAT-8 ) Date (NOAA-19) Time (NOAA-19) Lat,Lon (NOAA-19) SZA (NOAA-19 ) Distance(km) Time Diff (sec)
1 01/03/2016 06:14:01 -74.01, -90.35 83.21 01/03/2016 06:13:30 -74.01, -90.26 83.20 3.04 31
2 01/03/2016 07:03:27 73.98, 77.23 96.77 01/03/2016 07:04:26 73.97, 77.13 96.76 3.59 59
3 01/05/2016 11:47:43 74.01, 6.22 96.57 01/05/2016 11:47:37 74.00, 6.30 96.56 2.76 6
4 01/05/2016 12:37:23 -73.37, 172.46 84.10 01/05/2016 12:38:29 -73.36, 175.10 84.08 84.08 66
5 01/07/2016 16:31:58 74.08, -64.68 96.38 01/07/2016 16:30:49 74.08, -64.66 96.38 0.68 69
6 01/07/2016 17:21:27 -74.01, 102.79 83.70 01/07/2016 17:21:52 -73.99, 102.81 83.72 2.74 25
7 01/09/2016 22:05:42 -74.08, 31.88 83.93 01/09/2016 22:05:04 -74.09, 31.79 83.92 2.83 38
8 01/09/2016 22:55:09 73.99,-160.67 95.98 01/09/2016 22:56:00 74.01,-160.73 96.00 2.47 51
9 01/12/2016 03:39:24 74.05, 128.39 95.71 01/12/2016 03:39:11 74.05, 128.40 95.71 0.39 13
10 01/12/2016 04:28:58 -73.73, -64.69 84.63 01/12/2016 04:30:08 -73.70, -63.48 84.65 38.01 70
11 01/14/2016 08:23:38 74.15, 57.56 95.44 01/14/2016 08:22:25 74.25, 57.15 95.54 16.12 73
12 01/14/2016 09:13:08 -74.04,-135.07 84.68 01/14/2016 09:13:25 -74.06,-135.14 84.66 3.20 17




NCC Satellite Simultaneous Nadir Overpasses (SNOs) Prediction Service
